星链-3704 (STARLINK-3704 )

导读

STARLINK-3704是美国SpaceX公司星链(Starlink)星座的组网卫星,于2022年3月9日发射入轨。星链星座旨在搭建全球低轨宽带互联网,该卫星属于量产型卫星,搭载Ku/Ka波段通信载荷,采用氪工质霍尔推进器,具备自主避撞能力,设计寿命约5-7年,退役后会主动离轨坠入大气层焚毁,为星链星座的全球覆盖提供支撑。

基本信息
目录编号:
51959
目录名称:
STARLINK-3704
国际标识:
2022-025D
轨道中心:
EARTH
卫星名称:
星链-3704
卫星全名:
星链-3704 (STARLINK-3704 )
卫星状态:
在轨 (已飞行1641 天)
发射日期:
2022-03-09 UTC
国别 :
美国 (US)
星等 :
--
轨道信息
数据来源 国际轨道数据
星历时间: 2026-09-04T20:24:40+0800
1天前
查看轨道信息
半长轴: 6848.859km
偏心率: 0.000101
轨道倾角: 53.160°
近地点辐角 86.448°
升交点赤经 285.239°
平近点角 273.664°
近地点: 470.03km
远地点: 471.414km
周期: 94.013分钟
每日圈数: 15.317063
详细信息
固有亮度:
5
最大亮度:
2.5
卫星平台:
Starlink v1.5
覆盖范围:
全球
运营商:
太空探索技术公司
运营商所在国:
美国
制造商(研发单位):
太空探索技术公司
制造商所在国:
美国
使用方式:
暂无
卫星简介
星链(Starlink)计划是由太空探索技术公司(SpaceX)提出的一个巨型低轨卫星互联网星座项目,计划在2019年至2024年间在太空搭建由约1.2万颗卫星组成的“星链”网络,其中1584颗将部署在地球上空550千米处的近地轨道,并从2020年开始工作。该卫星仍在工作。
2D轨道图
3D轨道图
轨道高度分析图
轨道倾角分析图
轨道综合分析图
查看轨道综合分析图
交会数据列表
事件ID 空间交会对象 最接近时刻(TCA) 交会距离 交会风险概率(CRP) 交会风险指数(CRI) 操作
CDM_260905-133905-195905-719322
2026-09-05T
13:39:26+0000
0.313 km
远距离
3.43523E-4 高风险 0.86
CDM_260905-135105-195906-471521
2026-09-05T
13:51:39+0000
0.559 km
远距离
9.830093E-5 中风险 0.75
CDM_260906-111004-284005-195923
2026-09-06T
11:10:49+0000
1.279 km
极远距离
1.127449E-5 中风险 0.56
CDM_260907-005003-052005-195924
2026-09-07T
00:50:13+0000
1.928 km
极远距离
3.13246E-6 低风险 0.45